{"data":{"norad_id":61787,"intl_designator":"2024-199BE","name":"2024-199BE","alt_names":[],"object_type":"PAYLOAD","status":"ACTIVE","operator":null,"country":"TBD","launch_date":"2024-11-04","launch_site_code":"VOSTO","launch_vehicle":null,"mission":null,"orbit_class":"UNKNOWN","rcs_meters":null,"size_class":null,"mass_kg":null,"dimensions":null,"purposes":[],"wikipedia_slug":null,"has_3d_model":false,"image_url":null,"decayed_at":null,"tle_current":{"epoch":"2026-05-25T04:39:26.205120Z","epoch_age_seconds":65158,"freshness":"FRESH","line1":"1 61787U 24199BE  26145.19405330  .00009154  00000+0  26244-3 0  9996","line2":"2 61787  97.3045  14.3448 0014455  36.4604 323.7621 15.36013147133568","mean_motion":15.36013147,"eccentricity":0.0014455,"inclination_deg":97.3045,"raan_deg":14.3448,"arg_perigee_deg":36.4604,"mean_anomaly_deg":323.7621,"bstar":0.00026244,"rev_number":13356,"period_min":93.749197577669,"perigee_km":448.03131398996,"apogee_km":467.79433403117,"semimajor_km":6836.0498240106,"source":"CELESTRAK","updated_at":"2026-05-25T13:38:02.563629Z"}}}